Flag for Russia Weather past 2 weeks in Yakutsk, Russia

Now
12 °F

Snow flurries. Mostly cloudy.


Feels Like: 12 °F
Forecast: 2 / 13 °F
Wind: 1 mph from North

Location: Jakutsk

Current Time: Oct 21, 2014 at 6:53:17 PM

Latest Report: Oct 21, 2014 at 6:30 PM


Visibility: N/A

Pressure: 29.39 "Hg

Humidity: 85%

Dew point: 9 °F

Location of YakutskLocation

Historic Weather in Yakutsk — Graph

°F

Yakutsk temperature yesterday

Maximum temperature yesterday: 14 °F (at 3:00 PM)
Minimum temperature yesterday: 7 °F (at 12:00 AM)
Average temperature yesterday: 10 °F

Past Weeks' High & Low Weather Summary

 TemperatureHumidityPressure
High37 °F (Oct 11, 3:00 PM)100% (Oct 8, 7:30 AM)30.36 "Hg (Oct 8, 7:30 AM)
Low7 °F (Oct 10, 6:00 AM)40% (Oct 17, 4:00 PM)29.21 "Hg (Oct 21, 5:30 AM)
Average22 °F78%29.92 "Hg
* Reported Oct 6 5:00 PM — Oct 21 5:30 PM, Yakutsk, Weather by CustomWeather, © 2014

Note: Actual official high and low records may vary slightly from our data, if they occured in-between our weather recording intervals... More about our weather records

Advertising

Yakutsk weather history for previous 24 hours

 ConditionsComfort  
Time TempWeatherWind HumidityBarometerVisibility
5:30 PM
Oct 21
12 °FSnow flurries. Mostly cloudy.3 mph85%29.36 "HgN/A
5:00 PM12 °FSnow flurries. Mostly cloudy.6 mph85%29.36 "HgN/A
4:30 PM10 °FMore clouds than sun.3 mph92%29.36 "HgN/A
4:00 PM10 °FMore clouds than sun.6 mph92%29.33 "HgN/A
3:30 PM12 °FSnow flurries. More clouds than sun.6 mph92%29.33 "HgN/A
3:00 PM14 °FSnow flurries. Mostly cloudy.6 mph85%29.33 "Hg3 mi
2:30 PM14 °FSnow flurries. Mostly cloudy.6 mph85%29.30 "Hg2 mi
2:00 PM14 °FSnow flurries. Mostly cloudy.6 mph92%29.30 "Hg2 mi
1:00 PM14 °FSnow showers. Mostly cloudy.10 mph92%29.30 "Hg1 mi
12:30 PM16 °FSnow showers. Mostly cloudy.8 mph93%29.27 "Hg1 mi
12:00 PM16 °FSnow showers. Mostly cloudy.10 mph93%29.27 "Hg1 mi
11:30 AM16 °FSnow showers. Mostly cloudy.8 mph93%29.24 "Hg1 mi
11:00 AM18 °FSnow showers. Mostly cloudy.8 mph93%29.24 "Hg1 mi
10:30 AM18 °FSnow flurries. Mostly cloudy.8 mph93%29.24 "HgN/A
10:00 AM18 °FSnow flurries. Mostly cloudy.8 mph93%29.24 "Hg2 mi
9:30 AM18 °FSnow showers. Mostly cloudy.6 mph93%29.24 "Hg1 mi
9:00 AM18 °FSnow flurries. Mostly cloudy.8 mph86%29.24 "Hg1 mi
8:30 AM16 °FSnow showers. Mostly cloudy.8 mph93%29.21 "Hg1 mi
8:00 AM16 °FHeavy snow. Ice fog.6 mph93%29.24 "Hg1 mi
7:30 AM16 °FHeavy snow. Ice fog.8 mph93%29.21 "Hg1 mi
7:00 AM16 °FSnow showers. Mostly cloudy.10 mph86%29.21 "Hg1 mi
6:30 AM14 °FSnow showers. Mostly cloudy.10 mph92%29.21 "Hg1 mi
6:00 AM14 °FSnow showers. Mostly cloudy.13 mph85%29.21 "Hg1 mi
5:30 AM14 °FSnow showers. Mostly cloudy.15 mph85%29.21 "Hg1 mi
5:00 AM12 °FSnow showers. Mostly cloudy.15 mph85%29.24 "Hg1 mi
4:30 AM12 °FSnow flurries. Mostly cloudy.15 mph79%29.24 "Hg3 mi
4:00 AM12 °FSnow flurries. Mostly cloudy.17 mph79%29.24 "HgN/A
3:30 AM12 °FSnow flurries. Mostly cloudy.15 mph79%29.24 "HgN/A
3:00 AM12 °FSnow flurries. Mostly cloudy.15 mph79%29.24 "HgN/A
2:30 AM12 °FSnow flurries. Mostly cloudy.17 mph79%29.24 "Hg3 mi
2:00 AM12 °FSnow flurries. Mostly cloudy.13 mph79%29.27 "HgN/A
1:30 AM12 °FSnow flurries. Mostly cloudy.17 mph79%29.27 "Hg2 mi
1:00 AM12 °FSnow flurries. Mostly cloudy.17 mph79%29.30 "Hg3 mi
12:30 AM12 °FSnow flurries. Mostly cloudy.13 mph79%29.33 "HgN/A
12:00 AM12 °FSnow flurries. Mostly cloudy.15 mph73%29.33 "HgN/A
11:30 PM
Oct 20
12 °FSnow flurries. Mostly cloudy.17 mph73%29.33 "HgN/A
11:00 PM12 °FSnow flurries. Mostly cloudy.17 mph73%29.36 "HgN/A
10:30 PM12 °FSnow flurries. Mostly cloudy.17 mph79%29.36 "HgN/A
10:00 PM12 °FSnow flurries. Mostly cloudy.15 mph79%29.39 "HgN/A
9:30 PM12 °FSnow flurries. Mostly cloudy.20 mph79%29.39 "Hg3 mi
9:00 PM12 °FSnow flurries. Mostly cloudy.15 mph79%29.42 "HgN/A
8:30 PM12 °FSnow flurries. Partly cloudy.13 mph79%29.42 "HgN/A
8:00 PM12 °FClear.10 mph73%29.45 "Hg10 mi
7:30 PM10 °FClear.13 mph79%29.45 "Hg10 mi
7:00 PM10 °FClear.10 mph79%29.47 "Hg10 mi
6:30 PM10 °FSunny.8 mph79%29.47 "Hg10 mi
6:00 PM10 °FBroken clouds.8 mph79%29.47 "HgN/A
Weather by CustomWeather, © 2014

See weather overviewHow to use our weather pages